Volver al catálogo

SL-16 DEB

ActivoLEO
NORAD 22451·DEBRIS·🇷🇺 Russia

Lanzado Dec 25, 1992 desde Baikonur Cosmodrome

Loading…

Próximos Pases (próximas 24 horas)

TLE

ActualizadoSource: Space-Track

Época: Sep 13, 2026, 22:13 UTC

1 22451U 92093EQ  26256.92604064  .00000059  00000-0  72281-4 0  9997
2 22451  71.1383 312.0489 0128951  43.7554 131.1715 13.94366503712054

Sigue SL-16 DEB en tiempo real con AllMySat

Download on the App Store